Powrót do katalogu

ONEWEB-0020

AktywnyŁącznośćPO
NORAD 45133·PAYLOAD·🇬🇧 United Kingdom

Wystrzelony Feb 6, 2020 z Baikonur Cosmodrome

Loading…

Następne Przeloty (najbliższe 24 godziny)

TLE

ŚwieżeSource: CelesTrak SupGP

Epoka: Sep 14, 2026, 17:06 UTC

1 45133C 20008C   26257.71299028  .00002496  00000+0  71571-2 0  2576
2 45133  87.8912  18.4451 0001733 101.2436  10.6923 13.10374272    19

Śledź ONEWEB-0020 w czasie rzeczywistym z AllMySat

Download on the App Store